| time (UTC) | temp C | wind direction | speed KPH | gust KPH | rain 1hr cm | rain 24hr cm | rain mn cm | humidity % | barometer mb |
| 20260506092146 | 23 | 150 | 8.0 | 9.7 | 0.00 | 0.00 | 0.00 | 93 | 1011.2 |
| 20260506091647 | 23 | 126 | 9.7 | 11.3 | 0.00 | 0.00 | 0.00 | 93 | 1011.2 |
| 20260506091148 | 23 | 151 | 4.8 | 8.0 | 0.00 | 0.00 | 0.00 | 93 | 1011.2 |
| 20260506090647 | 23 | 139 | 4.8 | 11.3 | 0.00 | 0.00 | 0.00 | 93 | 1011.2 |
| 20260506090147 | 23 | 143 | 8.0 | 9.7 | 0.00 | 0.00 | 0.00 | 93 | 1011.2 |
| 20260506085649 | 23 | 162 | 9.7 | 11.3 | 0.00 | 0.00 | 0.00 | 93 | 1011.2 |
| 20260506085147 | 23 | 146 | 4.8 | 8.0 | 0.00 | 0.00 | 0.00 | 93 | 1011.2 |
| 20260506084646 | 23 | 141 | 3.2 | 9.7 | 0.00 | 0.00 | 0.00 | 92 | 1011.2 |
| 20260506084147 | 23 | 171 | 3.2 | 8.0 | 0.00 | 0.00 | 0.00 | 92 | 1011.2 |
| 20260506083647 | 23 | 158 | 6.4 | 9.7 | 0.00 | 0.00 | 0.00 | 92 | 1011.2 |
| 20260506083148 | 23 | 144 | 4.8 | 8.0 | 0.00 | 0.00 | 0.00 | 92 | 1011.2 |
| 20260506082647 | 23 | 156 | 4.8 | 8.0 | 0.00 | 0.00 | 0.00 | 92 | 1011.2 |
| 20260506082146 | 23 | 157 | 6.4 | 9.7 | 0.00 | 0.00 | 0.00 | 92 | 1010.8 |
| 20260506081649 | 23 | 156 | 6.4 | 9.7 | 0.00 | 0.00 | 0.00 | 92 | 1011.2 |
| 20260506081146 | 23 | 160 | 8.0 | 11.3 | 0.00 | 0.00 | 0.00 | 92 | 1011.2 |
| 20260506080647 | 23 | 156 | 8.0 | 12.9 | 0.00 | 0.00 | 0.00 | 92 | 1011.2 |
| 20260506080147 | 23 | 155 | 4.8 | 9.7 | 0.00 | 0.00 | 0.00 | 92 | 1010.8 |
| 20260506073147 | 22 | 144 | 4.8 | 14.5 | 0.00 | 0.00 | 0.00 | 92 | 1011.2 |
| 20260506072647 | 22 | 166 | 9.7 | 14.5 | 0.00 | 0.00 | 0.00 | 92 | 1011.2 |
| 20260506072147 | 22 | 154 | 8.0 | 9.7 | 0.00 | 0.00 | 0.00 | 93 | 1011.2 |
| 20260506071646 | 22 | 157 | 9.7 | 14.5 | 0.00 | 0.00 | 0.00 | 93 | 1011.2 |
| 20260506071147 | 22 | 172 | 9.7 | 11.3 | 0.00 | 0.00 | 0.00 | 94 | 1011.2 |
| 20260506070647 | 22 | 148 | 11.3 | 12.9 | 0.00 | 0.00 | 0.00 | 94 | 1011.2 |
| 20260506070152 | 22 | 134 | 4.8 | 9.7 | 0.00 | 0.00 | 0.00 | 94 | 1011.2 |
| 20260506062147 | 22 | 157 | 4.8 | 9.7 | 0.00 | 0.00 | 0.00 | 93 | 1011.5 |
| 20260506061647 | 22 | 156 | 4.8 | 11.3 | 0.00 | 0.00 | 0.00 | 93 | 1011.5 |
| 20260506061148 | 22 | 138 | 8.0 | 11.3 | 0.00 | 0.00 | 0.00 | 93 | 1011.5 |
| 20260506060646 | 22 | 166 | 3.2 | 14.5 | 0.00 | 0.00 | 0.00 | 93 | 1011.5 |
| 20260506060146 | 22 | 140 | 8.0 | 11.3 | 0.00 | 0.00 | 0.00 | 93 | 1011.5 |
| 20260506051147 | 22 | 108 | 4.8 | 9.7 | 0.00 | 0.00 | 0.00 | 93 | 1011.9 |
| 20260506050646 | 22 | 159 | 6.4 | 16.1 | 0.00 | 0.00 | 0.00 | 93 | 1011.9 |
| 20260506050146 | 22 | 142 | 9.7 | 16.1 | 0.00 | 0.00 | 0.00 | 93 | 1011.5 |
| 20260506044647 | 22 | 139 | 9.7 | 16.1 | 0.00 | 0.00 | 0.00 | 93 | 1011.9 |
| 20260506044146 | 22 | 139 | 14.5 | 19.3 | 0.00 | 0.00 | 0.00 | 93 | 1011.9 |
| 20260506043647 | 22 | 118 | 4.8 | 12.9 | 0.00 | 0.00 | 0.00 | 93 | 1011.9 |
| 20260506043146 | 22 | 138 | 11.3 | 14.5 | 0.00 | 0.00 | 0.00 | 93 | 1011.9 |
| 20260506042647 | 22 | 157 | 6.4 | 14.5 | 0.00 | 0.00 | 0.00 | 93 | 1011.9 |
| 20260506042147 | 22 | 150 | 12.9 | 19.3 | 0.00 | 0.00 | 0.00 | 93 | 1011.9 |
| 20260506041647 | 22 | 139 | 8.0 | 16.1 | 0.00 | 0.00 | 0.00 | 93 | 1011.9 |
| 20260506041146 | 22 | 146 | 9.7 | 14.5 | 0.00 | 0.00 | 0.00 | 92 | 1011.9 |
| 20260506040647 | 22 | 148 | 9.7 | 16.1 | 0.00 | 0.00 | 0.00 | 92 | 1011.9 |
| 20260506040147 | 22 | 155 | 6.4 | 17.7 | 0.00 | 0.00 | 0.00 | 92 | 1011.9 |
| 20260506035647 | 22 | 148 | 6.4 | 16.1 | 0.00 | 0.00 | 0.00 | 92 | 1011.9 |
| 20260506035146 | 22 | 135 | 11.3 | 16.1 | 0.00 | 0.00 | 0.00 | 92 | 1011.9 |
| 20260506034647 | 22 | 137 | 11.3 | 17.7 | 0.00 | 0.00 | 0.00 | 91 | 1011.9 |
| 20260506034147 | 22 | 136 | 8.0 | 16.1 | 0.00 | 0.00 | 0.00 | 91 | 1011.9 |
| 20260506033647 | 23 | 141 | 8.0 | 17.7 | 0.00 | 0.00 | 0.00 | 91 | 1011.9 |
| 20260506033146 | 23 | 146 | 11.3 | 14.5 | 0.00 | 0.00 | 0.00 | 91 | 1011.9 |
| 20260506032647 | 23 | 148 | 12.9 | 17.7 | 0.00 | 0.00 | 0.00 | 91 | 1011.9 |
| 20260506032147 | 23 | 148 | 9.7 | 17.7 | 0.00 | 0.00 | 0.00 | 90 | 1011.9 |
| 20260506031647 | 23 | 148 | 8.0 | 17.7 | 0.00 | 0.00 | 0.00 | 90 | 1011.9 |
| 20260506031147 | 23 | 142 | 14.5 | 17.7 | 0.00 | 0.00 | 0.00 | 90 | 1011.9 |
| 20260506030647 | 23 | 134 | 8.0 | 14.5 | 0.00 | 0.00 | 0.00 | 90 | 1011.9 |
| 20260506030146 | 23 | 140 | 14.5 | 19.3 | 0.00 | 0.00 | 0.00 | 90 | 1011.9 |
| 20260506025646 | 23 | 132 | 8.0 | 16.1 | 0.00 | 0.00 | 0.00 | 90 | 1012.2 |
| 20260506025147 | 23 | 149 | 9.7 | 20.9 | 0.00 | 0.00 | 0.00 | 90 | 1011.9 |
| 20260506024648 | 23 | 134 | 8.0 | 19.3 | 0.00 | 0.00 | 0.00 | 89 | 1011.9 |
| 20260506024147 | 23 | 146 | 12.9 | 17.7 | 0.00 | 0.00 | 0.00 | 89 | 1011.9 |
| 20260506023647 | 23 | 126 | 6.4 | 12.9 | 0.00 | 0.00 | 0.00 | 88 | 1011.9 |
| 20260506023147 | 23 | 165 | 9.7 | 14.5 | 0.00 | 0.00 | 0.00 | 88 | 1011.5 |
| 20260506022647 | 23 | 144 | 8.0 | 11.3 | 0.00 | 0.00 | 0.00 | 88 | 1011.5 |
| 20260506022148 | 23 | 141 | 9.7 | 14.5 | 0.00 | 0.00 | 0.00 | 88 | 1011.5 |
| 20260506021646 | 23 | 166 | 11.3 | 14.5 | 0.00 | 0.00 | 0.00 | 88 | 1011.5 |
| 20260506021147 | 23 | 155 | 4.8 | 11.3 | 0.00 | 0.00 | 0.00 | 88 | 1011.5 |
| 20260506020647 | 23 | 155 | 11.3 | 12.9 | 0.00 | 0.00 | 0.00 | 87 | 1011.5 |
| 20260506020146 | 23 | 141 | 8.0 | 12.9 | 0.00 | 0.00 | 0.00 | 87 | 1011.5 |
| 20260506015647 | 23 | 144 | 11.3 | 11.3 | 0.00 | 0.00 | 0.00 | 86 | 1011.5 |
| 20260506015146 | 23 | 156 | 11.3 | 16.1 | 0.00 | 0.00 | 0.00 | 85 | 1011.5 |
| 20260506014649 | 23 | 149 | 4.8 | 11.3 | 0.00 | 0.00 | 0.00 | 84 | 1011.2 |
| 20260506014147 | 23 | 154 | 8.0 | 12.9 | 0.00 | 0.00 | 0.00 | 84 | 1011.2 |
| 20260506013647 | 23 | 161 | 6.4 | 9.7 | 0.00 | 0.00 | 0.00 | 84 | 1011.2 |
| 20260506013147 | 23 | 163 | 4.8 | 9.7 | 0.00 | 0.00 | 0.00 | 85 | 1011.2 |
| 20260506012646 | 23 | 164 | 9.7 | 12.9 | 0.00 | 0.00 | 0.00 | 85 | 1011.2 |
| 20260506012147 | 24 | 154 | 8.0 | 12.9 | 0.00 | 0.00 | 0.00 | 85 | 1011.2 |
| 20260506011646 | 24 | 156 | 8.0 | 12.9 | 0.00 | 0.00 | 0.00 | 84 | 1011.5 |
| 20260506011147 | 24 | 163 | 12.9 | 14.5 | 0.00 | 0.00 | 0.00 | 83 | 1011.2 |
| 20260506010647 | 24 | 164 | 8.0 | 12.9 | 0.00 | 0.00 | 0.00 | 83 | 1011.2 |
| 20260506010147 | 24 | 178 | 12.9 | 17.7 | 0.00 | 0.00 | 0.00 | 82 | 1011.2 |
| 20260506005647 | 25 | 166 | 11.3 | 12.9 | 0.00 | 0.00 | 0.00 | 81 | 1011.5 |
| 20260506005147 | 24 | 153 | 12.9 | 16.1 | 0.00 | 0.00 | 0.00 | 81 | 1011.2 |
| 20260506004649 | 25 | 159 | 14.5 | 19.3 | 0.00 | 0.00 | 0.00 | 82 | 1011.2 |
| 20260506004146 | 25 | 163 | 11.3 | 14.5 | 0.00 | 0.00 | 0.00 | 82 | 1011.2 |
| 20260506003653 | 25 | 176 | 12.9 | 14.5 | 0.00 | 0.00 | 0.00 | 81 | 1011.2 |
| 20260506003146 | 25 | 160 | 12.9 | 16.1 | 0.00 | 0.00 | 0.00 | 81 | 1011.5 |
| 20260506002647 | 25 | 171 | 11.3 | 14.5 | 0.00 | 0.00 | 0.00 | 80 | 1011.2 |
| 20260506002147 | 25 | 170 | 14.5 | 17.7 | 0.00 | 0.00 | 0.00 | 80 | 1011.2 |
| 20260506001647 | 25 | 166 | 16.1 | 20.9 | 0.00 | 0.00 | 0.00 | 80 | 1011.2 |
| 20260506001146 | 25 | 174 | 16.1 | 17.7 | 0.00 | 0.00 | 0.00 | 79 | 1011.2 |
| 20260506000648 | 25 | 159 | 11.3 | 14.5 | 0.00 | 0.00 | 0.00 | 79 | 1011.2 |
| 20260506000147 | 25 | 162 | 9.7 | 20.9 | 0.00 | 0.00 | 0.00 | 79 | 1011.2 |
| 20260505235646 | 25 | 152 | 11.3 | 19.3 | 0.00 | 0.00 | 0.00 | 79 | 1011.2 |
| 20260505235147 | 25 | 156 | 14.5 | 19.3 | 0.00 | 0.00 | 0.00 | 79 | 1011.2 |
| 20260505234646 | 25 | 162 | 9.7 | 17.7 | 0.00 | 0.00 | 0.00 | 79 | 1011.2 |
| 20260505234147 | 25 | 163 | 11.3 | 27.4 | 0.00 | 0.00 | 0.00 | 78 | 1011.2 |
| 20260505233647 | 25 | 148 | 11.3 | 19.3 | 0.00 | 0.00 | 0.00 | 77 | 1011.2 |
| 20260505233147 | 25 | 158 | 16.1 | 19.3 | 0.00 | 0.00 | 0.00 | 77 | 1011.2 |
| 20260505232646 | 25 | 171 | 11.3 | 20.9 | 0.00 | 0.00 | 0.00 | 76 | 1011.2 |
| 20260505232147 | 25 | 163 | 11.3 | 17.7 | 0.00 | 0.00 | 0.00 | 76 | 1011.2 |
| 20260505231646 | 25 | 162 | 8.0 | 17.7 | 0.00 | 0.00 | 0.00 | 76 | 1011.5 |
| 20260505231148 | 25 | 160 | 20.9 | 25.7 | 0.00 | 0.00 | 0.00 | 76 | 1011.5 |
| 20260505230646 | 25 | 157 | 11.3 | 25.7 | 0.00 | 0.00 | 0.00 | 76 | 1011.5 |
| 20260505230146 | 26 | 163 | 17.7 | 22.5 | 0.00 | 0.00 | 0.00 | 74 | 1011.2 |
| 20260505225646 | 26 | 133 | 11.3 | 16.1 | 0.00 | 0.00 | 0.00 | 76 | 1011.2 |
| 20260505225146 | 26 | 167 | 16.1 | 25.7 | 0.00 | 0.00 | 0.00 | 75 | 1011.2 |
| 20260505224647 | 26 | 168 | 14.5 | 20.9 | 0.00 | 0.00 | 0.00 | 75 | 1011.5 |
| 20260505224147 | 26 | 166 | 14.5 | 17.7 | 0.00 | 0.00 | 0.00 | 74 | 1011.2 |
| 20260505223647 | 26 | 154 | 14.5 | 27.4 | 0.00 | 0.00 | 0.00 | 74 | 1011.2 |
| 20260505223147 | 26 | 178 | 20.9 | 27.4 | 0.00 | 0.00 | 0.00 | 74 | 1011.2 |
| 20260505222646 | 26 | 205 | 16.1 | 27.4 | 0.00 | 0.00 | 0.00 | 74 | 1011.2 |
| 20260505222147 | 26 | 162 | 11.3 | 27.4 | 0.00 | 0.00 | 0.00 | 74 | 1011.2 |
| 20260505221649 | 26 | 164 | 17.7 | 27.4 | 0.00 | 0.00 | 0.00 | 72 | 1011.2 |
| 20260505221147 | 26 | 175 | 9.7 | 25.7 | 0.00 | 0.00 | 0.00 | 73 | 1011.2 |
| 20260505220647 | 26 | 155 | 14.5 | 24.1 | 0.00 | 0.00 | 0.00 | 73 | 1011.2 |
| 20260505220148 | 26 | 156 | 12.9 | 25.7 | 0.00 | 0.00 | 0.00 | 73 | 1011.2 |
| 20260505215647 | 26 | 171 | 24.1 | 29.0 | 0.00 | 0.00 | 0.00 | 73 | 1011.2 |
| 20260505215147 | 26 | 158 | 11.3 | 27.4 | 0.00 | 0.00 | 0.00 | 73 | 1011.2 |
| 20260505214647 | 26 | 134 | 12.9 | 29.0 | 0.00 | 0.00 | 0.00 | 73 | 1011.2 |
| 20260505214147 | 26 | 169 | 14.5 | 30.6 | 0.00 | 0.00 | 0.00 | 71 | 1011.2 |
| 20260505213646 | 26 | 150 | 20.9 | 27.4 | 0.00 | 0.00 | 0.00 | 74 | 1011.5 |
| 20260505213147 | 26 | 165 | 22.5 | 32.2 | 0.00 | 0.00 | 0.00 | 73 | 1011.2 |
| 20260505212648 | 26 | 162 | 12.9 | 27.4 | 0.00 | 0.00 | 0.00 | 74 | 1011.5 |
| 20260505212146 | 26 | 153 | 20.9 | 32.2 | 0.00 | 0.00 | 0.00 | 73 | 1011.5 |
| 20260505211647 | 26 | 162 | 24.1 | 27.4 | 0.00 | 0.00 | 0.00 | 73 | 1011.5 |
| 20260505211147 | 26 | 160 | 19.3 | 24.1 | 0.00 | 0.00 | 0.00 | 73 | 1011.5 |
| 20260505210647 | 26 | 168 | 14.5 | 30.6 | 0.00 | 0.00 | 0.00 | 73 | 1011.5 |
| 20260505210147 | 26 | 178 | 14.5 | 24.1 | 0.00 | 0.00 | 0.00 | 73 | 1011.5 |
| 20260505205647 | 26 | 171 | 17.7 | 25.7 | 0.00 | 0.00 | 0.00 | 72 | 1011.9 |
| 20260505205147 | 26 | 156 | 16.1 | 25.7 | 0.00 | 0.00 | 0.00 | 72 | 1011.9 |
| 20260505204647 | 26 | 165 | 14.5 | 27.4 | 0.00 | 0.00 | 0.00 | 71 | 1011.9 |
| 20260505204146 | 26 | 148 | 25.7 | 27.4 | 0.00 | 0.00 | 0.00 | 70 | 1011.5 |
| 20260505203646 | 26 | 165 | 20.9 | 25.7 | 0.00 | 0.00 | 0.00 | 72 | 1011.5 |
| 20260505203146 | 26 | 170 | 14.5 | 32.2 | 0.00 | 0.00 | 0.00 | 71 | 1011.5 |
| 20260505202649 | 26 | 164 | 20.9 | 33.8 | 0.00 | 0.00 | 0.00 | 70 | 1011.5 |
| 20260505202146 | 26 | 159 | 8.0 | 30.6 | 0.00 | 0.00 | 0.00 | 71 | 1011.9 |
| 20260505201646 | 26 | 161 | 14.5 | 32.2 | 0.00 | 0.00 | 0.00 | 68 | 1011.9 |
| 20260505201147 | 26 | 168 | 17.7 | 32.2 | 0.00 | 0.00 | 0.00 | 69 | 1011.5 |
| 20260505200647 | 27 | 155 | 11.3 | 24.1 | 0.00 | 0.00 | 0.00 | 69 | 1011.5 |
| 20260505200147 | 26 | 154 | 20.9 | 29.0 | 0.00 | 0.00 | 0.00 | 69 | 1011.9 |
| 20260505195647 | 26 | 161 | 12.9 | 22.5 | 0.00 | 0.00 | 0.00 | 68 | 1011.9 |
| 20260505195147 | 27 | 166 | 11.3 | 19.3 | 0.00 | 0.00 | 0.00 | 68 | 1011.9 |
| 20260505194647 | 27 | 160 | 12.9 | 24.1 | 0.00 | 0.00 | 0.00 | 65 | 1011.9 |
| 20260505194147 | 27 | 188 | 12.9 | 24.1 | 0.00 | 0.00 | 0.00 | 65 | 1011.5 |
| 20260505193647 | 27 | 169 | 16.1 | 25.7 | 0.00 | 0.00 | 0.00 | 65 | 1011.9 |
| 20260505193147 | 27 | 162 | 12.9 | 20.9 | 0.00 | 0.00 | 0.00 | 67 | 1011.9 |
| 20260505192647 | 27 | 144 | 16.1 | 24.1 | 0.00 | 0.00 | 0.00 | 67 | 1011.9 |
| 20260505192147 | 27 | 180 | 19.3 | 24.1 | 0.00 | 0.00 | 0.00 | 66 | 1011.9 |
| 20260505191648 | 27 | 171 | 17.7 | 22.5 | 0.00 | 0.00 | 0.00 | 66 | 1011.9 |
| 20260505191146 | 27 | 158 | 11.3 | 24.1 | 0.00 | 0.00 | 0.00 | 67 | 1011.9 |
| 20260505190647 | 27 | 154 | 16.1 | 29.0 | 0.00 | 0.00 | 0.00 | 66 | 1011.9 |
| 20260505190147 | 27 | 163 | 24.1 | 27.4 | 0.00 | 0.00 | 0.00 | 68 | 1012.2 |
| 20260505185646 | 27 | 156 | 12.9 | 25.7 | 0.00 | 0.00 | 0.00 | 67 | 1012.2 |
| 20260505185146 | 27 | 176 | 12.9 | 22.5 | 0.00 | 0.00 | 0.00 | 67 | 1012.2 |
| 20260505184646 | 27 | 161 | 12.9 | 25.7 | 0.00 | 0.00 | 0.00 | 67 | 1012.5 |
| 20260505184147 | 26 | 188 | 12.9 | 19.3 | 0.00 | 0.00 | 0.00 | 67 | 1012.5 |
| 20260505183646 | 26 | 178 | 14.5 | 25.7 | 0.00 | 0.00 | 0.00 | 67 | 1012.5 |
| 20260505183148 | 26 | 163 | 25.7 | 25.7 | 0.00 | 0.00 | 0.00 | 67 | 1012.5 |
| 20260505182647 | 27 | 164 | 12.9 | 24.1 | 0.00 | 0.00 | 0.00 | 66 | 1012.5 |
| 20260505182146 | 27 | 182 | 12.9 | 20.9 | 0.00 | 0.00 | 0.00 | 68 | 1012.9 |
| 20260505181647 | 26 | 186 | 14.5 | 24.1 | 0.00 | 0.00 | 0.00 | 67 | 1012.9 |
| 20260505181149 | 26 | 154 | 16.1 | 24.1 | 0.00 | 0.00 | 0.00 | 66 | 1012.9 |
| 20260505180648 | 27 | 160 | 14.5 | 17.7 | 0.00 | 0.00 | 0.00 | 66 | 1012.5 |
| 20260505180147 | 26 | 166 | 16.1 | 22.5 | 0.00 | 0.00 | 0.00 | 68 | 1012.9 |
| 20260505175648 | 26 | 181 | 19.3 | 24.1 | 0.00 | 0.00 | 0.00 | 67 | 1012.9 |
| 20260505175147 | 26 | 164 | 17.7 | 22.5 | 0.00 | 0.00 | 0.00 | 67 | 1012.9 |
| 20260505174647 | 26 | 152 | 16.1 | 27.4 | 0.00 | 0.00 | 0.00 | 68 | 1012.5 |
| 20260505174149 | 26 | 155 | 11.3 | 24.1 | 0.00 | 0.00 | 0.00 | 67 | 1012.9 |
| 20260505173647 | 26 | 161 | 17.7 | 24.1 | 0.00 | 0.00 | 0.00 | 68 | 1012.9 |
| 20260505173146 | 26 | 180 | 11.3 | 25.7 | 0.00 | 0.00 | 0.00 | 67 | 1012.9 |
| 20260505172647 | 26 | 176 | 14.5 | 25.7 | 0.00 | 0.00 | 0.00 | 68 | 1012.9 |
| 20260505172147 | 26 | 173 | 16.1 | 27.4 | 0.00 | 0.00 | 0.00 | 68 | 1012.9 |
| 20260505171647 | 26 | 172 | 16.1 | 25.7 | 0.00 | 0.00 | 0.00 | 67 | 1012.9 |
| 20260505171146 | 25 | 167 | 11.3 | 24.1 | 0.00 | 0.00 | 0.00 | 68 | 1012.9 |
| 20260505170647 | 25 | 161 | 14.5 | 27.4 | 0.00 | 0.00 | 0.00 | 67 | 1012.9 |
| 20260505170147 | 26 | 159 | 16.1 | 29.0 | 0.00 | 0.00 | 0.00 | 67 | 1012.9 |
| 20260505165651 | 25 | 182 | 8.0 | 24.1 | 0.00 | 0.00 | 0.00 | 69 | 1012.9 |
| 20260505165148 | 25 | 158 | 9.7 | 24.1 | 0.00 | 0.00 | 0.00 | 70 | 1012.9 |
| 20260505164646 | 25 | 144 | 24.1 | 25.7 | 0.00 | 0.00 | 0.00 | 69 | 1012.5 |
| 20260505164147 | 25 | 200 | 12.9 | 25.7 | 0.00 | 0.00 | 0.00 | 68 | 1012.9 |
| 20260505163647 | 25 | 170 | 14.5 | 25.7 | 0.00 | 0.00 | 0.00 | 69 | 1012.9 |
| 20260505163146 | 25 | 160 | 12.9 | 22.5 | 0.00 | 0.00 | 0.00 | 69 | 1012.9 |
| 20260505162647 | 25 | 177 | 11.3 | 25.7 | 0.00 | 0.00 | 0.00 | 69 | 1012.9 |
| 20260505162148 | 25 | 170 | 12.9 | 25.7 | 0.00 | 0.00 | 0.00 | 67 | 1012.9 |
| 20260505161647 | 25 | 161 | 14.5 | 20.9 | 0.00 | 0.00 | 0.00 | 69 | 1012.9 |
| 20260505161147 | 25 | 176 | 9.7 | 24.1 | 0.00 | 0.00 | 0.00 | 69 | 1012.9 |
| 20260505160648 | 25 | 161 | 9.7 | 25.7 | 0.00 | 0.00 | 0.00 | 68 | 1012.9 |
| 20260505160148 | 25 | 196 | 12.9 | 27.4 | 0.00 | 0.00 | 0.00 | 67 | 1012.5 |
| 20260505153147 | 25 | 151 | 16.1 | 24.1 | 0.00 | 0.00 | 0.00 | 69 | 1013.2 |
| 20260505152647 | 25 | 175 | 11.3 | 25.7 | 0.00 | 0.00 | 0.00 | 69 | 1013.2 |
| 20260505152146 | 24 | 174 | 14.5 | 25.7 | 0.00 | 0.00 | 0.00 | 70 | 1012.9 |
| 20260505151647 | 25 | 183 | 14.5 | 20.9 | 0.00 | 0.00 | 0.00 | 70 | 1013.2 |
| 20260505151147 | 25 | 174 | 6.4 | 19.3 | 0.00 | 0.00 | 0.00 | 72 | 1012.9 |
| 20260505150647 | 24 | 165 | 12.9 | 25.7 | 0.00 | 0.00 | 0.00 | 73 | 1012.9 |
| 20260505150146 | 23 | 147 | 17.7 | 20.9 | 0.00 | 0.00 | 0.00 | 73 | 1013.2 |
| 20260505140647 | 23 | 162 | 9.7 | 20.9 | 0.00 | 0.00 | 0.00 | 77 | 1013.2 |
| 20260505140147 | 23 | 166 | 17.7 | 20.9 | 0.00 | 0.00 | 0.00 | 77 | 1013.2 |
| 20260505130146 | 21 | 136 | 4.8 | 9.7 | 0.00 | 0.00 | 0.00 | 83 | 1012.5 |
| 20260505124649 | 20 | 132 | 8.0 | 11.3 | 0.00 | 0.00 | 0.00 | 84 | 1012.9 |
| 20260505124147 | 20 | 157 | 9.7 | 12.9 | 0.00 | 0.00 | 0.00 | 84 | 1012.2 |
| 20260505123647 | 20 | 160 | 8.0 | 14.5 | 0.00 | 0.00 | 0.00 | 84 | 1012.5 |
| 20260505123147 | 20 | 156 | 4.8 | 8.0 | 0.00 | 0.00 | 0.00 | 85 | 1012.2 |
| 20260505122647 | 20 | 156 | 8.0 | 11.3 | 0.00 | 0.00 | 0.00 | 85 | 1012.2 |
| 20260505122147 | 20 | 159 | 11.3 | 12.9 | 0.00 | 0.00 | 0.00 | 86 | 1012.2 |
| 20260505121646 | 20 | 154 | 4.8 | 9.7 | 0.00 | 0.00 | 0.00 | 86 | 1012.2 |
| 20260505121147 | 19 | 146 | 4.8 | 11.3 | 0.00 | 0.00 | 0.00 | 87 | 1012.2 |
| 20260505120646 | 19 | 151 | 4.8 | 11.3 | 0.00 | 0.00 | 0.00 | 87 | 1012.2 |
| 20260505120147 | 19 | 140 | 6.4 | 8.0 | 0.00 | 0.00 | 0.00 | 88 | 1012.2 |
| 20260505115646 | 18 | 142 | 6.4 | 8.0 | 0.00 | 0.00 | 0.00 | 88 | 1012.2 |
| 20260505115146 | 18 | 152 | 6.4 | 8.0 | 0.00 | 0.00 | 0.00 | 89 | 1012.2 |
| 20260505114647 | 18 | 150 | 3.2 | 8.0 | 0.00 | 0.00 | 0.00 | 89 | 1011.9 |
| 20260505114146 | 18 | 151 | 3.2 | 4.8 | 0.00 | 0.00 | 0.00 | 89 | 1012.2 |
| 20260505113647 | 18 | 153 | 4.8 | 6.4 | 0.00 | 0.00 | 0.00 | 89 | 1012.2 |
| 20260505113146 | 18 | 151 | 3.2 | 8.0 | 0.00 | 0.00 | 0.00 | 89 | 1012.2 |
| 20260505112647 | 18 | 137 | 4.8 | 9.7 | 0.00 | 0.00 | 0.00 | 89 | 1012.2 |
| 20260505112147 | 18 | 139 | 4.8 | 9.7 | 0.00 | 0.00 | 0.00 | 89 | 1012.2 |
| 20260505111646 | 18 | 133 | 6.4 | 8.0 | 0.00 | 0.00 | 0.00 | 89 | 1012.2 |
| 20260505111147 | 18 | 122 | 4.8 | 6.4 | 0.00 | 0.00 | 0.00 | 89 | 1011.9 |
| 20260505110652 | 18 | 149 | 4.8 | 8.0 | 0.00 | 0.00 | 0.00 | 88 | 1012.2 |
| 20260505110147 | 18 | 138 | 3.2 | 8.0 | 0.00 | 0.00 | 0.00 | 89 | 1012.2 |
| 20260505102146 | 18 | 135 | 4.8 | 6.4 | 0.00 | 0.00 | 0.00 | 88 | 1012.2 |
| 20260505101648 | 18 | 126 | 3.2 | 4.8 | 0.00 | 0.00 | 0.00 | 87 | 1012.2 |
| 20260505101146 | 18 | 146 | 4.8 | 6.4 | 0.00 | 0.00 | 0.00 | 87 | 1012.2 |
| 20260505100646 | 18 | 141 | 3.2 | 4.8 | 0.00 | 0.00 | 0.00 | 87 | 1012.2 |
| 20260505100146 | 18 | 124 | 1.6 | 3.2 | 0.00 | 0.00 | 0.00 | 87 | 1012.5 |
| 20260505095646 | 18 | 126 | 1.6 | 3.2 | 0.00 | 0.00 | 0.00 | 87 | 1012.5 |
| 20260505095146 | 18 | 96 | 0.0 | 3.2 | 0.00 | 0.00 | 0.00 | 86 | 1012.2 |
| 20260505094648 | 18 | 144 | 4.8 | 6.4 | 0.00 | 0.00 | 0.00 | 86 | 1012.2 |
| 20260505094147 | 18 | 129 | 0.0 | 3.2 | 0.00 | 0.00 | 0.00 | 86 | 1012.5 |
| 20260505093646 | 18 | 133 | 1.6 | 3.2 | 0.00 | 0.00 | 0.00 | 85 | 1012.2 |
| 20260505093146 | 18 | 124 | 3.2 | 6.4 | 0.00 | 0.00 | 0.00 | 85 | 1012.2 |
| 20260505092647 | 18 | 144 | 4.8 | 6.4 | 0.00 | 0.00 | 0.00 | 85 | 1011.9 |